Tracking 29892 objects as of 21-Nov-2024
HD Live streaming from Space Station
objects crossing your sky now

AYAME 1 DEB

Track AYAME 1 DEB now!


NORAD ID: 32483
Int'l Code: 1979-009D
Perigee: 12,332.8 km
Apogee: 34,365.6 km
Inclination: 9.4 °
Period: 849.8 minutes
Semi major axis: 29720 km
RCS: 0.003 m2 (small)
Launch date: February 6, 1979
Source: Japan (JPN)
Launch site: TANEGASHIMA SPACE CENTER (TNSTA)

Note: This is SATELLITE DEBRIS
Your satellite tracking list
Your tracking list is empty




NASA's NSSDC Master Catalog

Two Line Element Set (TLE):
1 32483U 79009D   24323.30074257 -.00000130  00000-0  00000-0 0  9992
2 32483   9.3518 317.7604 3706717 115.6986 315.8375  1.69443776103275
Source of the keplerian elements: AFSPC